Henderson, KY

4:47 AM CST on November 15, 2019 (GMT -0600)
Henderson City-County

Weather History for KEHR - September, 2019

Change the Weather History Date:

Wednesday, September 4, 2019

  Actual Average Record
Temperature  
Mean Temperature 78 °F -  
Max Temperature 87 °F 84 °F 100 °F (1954)
Min Temperature 68 °F 62 °F 46 °F (1974)
Cooling Degree Days 12    
Growing Degree Days 28 (Base 50)    
Moisture  
Dew Point 69 °F    
Average Humidity 76    
Maximum Humidity 97    
Minimum Humidity 55    
Precipitation  
Precipitation 0.00 in - - ()
Sea Level Pressure  
Sea Level Pressure 30.04 in    
Wind  
Wind Speed 4 mph (North)    
Max Wind Speed 9 mph    
Max Gust Speed -    
Visibility 10 miles    
Events      
Averages and records for this station are not official NWS values.
T = Trace of Precipitation, MM = Missing Value Source: NWS Daily Summary

Daily Weather History Graph

Daily Weather History Graph

Search for Another Location

Airport or City:

Astronomy

Sep. 04, 2019 Rise Set
Actual Time 6:23 AM CDT 7:15 PM CDT
Civil Twilight 5:56 AM CDT 7:42 PM CDT
Nautical Twilight 5:24 AM CDT 8:14 PM CDT
Astronomical Twilight 4:51 AM CDT 8:46 PM CDT
Moon 12:17 PM CDT (9/4) 10:56 PM CDT (9/4)
Length of Visible Light 13h 46m
Length of Day
12h 52m
Waxing Crescent, 35% of the Moon is Illuminated
Sep 4
Waxing Crescent
Sep 5
First Quarter
Sep 13
Full
Sep 21
Last Quarter
Sep 28
New

Hourly Weather History & Observations

Time (CDT) Temp. Heat Index Dew Point Humidity Pressure Visibility Wind Dir Wind Speed Gust Speed Precip Events Conditions
12:56 AM 69.1 °F - 68.0 °F 96% 30.00 in 8.0 mi Calm Calm - N/A   Clear
1:56 AM 68.0 °F - 66.9 °F 96% 29.99 in 6.0 mi SSW 3.5 mph - N/A   Clear
2:56 AM 69.1 °F - 68.0 °F 96% 29.98 in 8.0 mi SW 3.5 mph - N/A   Clear
3:56 AM 70.0 °F - 68.0 °F 93% 29.98 in 9.0 mi SW 3.5 mph - N/A   Clear
4:56 AM 71.1 °F - 69.1 °F 93% 29.99 in 10.0 mi WSW 4.6 mph - N/A   Clear
5:56 AM 70.0 °F - 69.1 °F 97% 30.00 in 10.0 mi Calm Calm - N/A   Clear
6:56 AM 69.1 °F - 68.0 °F 96% 30.03 in 6.0 mi WSW 4.6 mph - N/A   Clear
7:56 AM 73.9 °F - 71.1 °F 91% 30.04 in 10.0 mi West 4.6 mph - N/A   Clear
8:56 AM 77.0 °F - 73.0 °F 88% 30.04 in 10.0 mi NNW 5.8 mph - N/A   Clear
9:30 AM 78.8 °F - 73.4 °F 83% 30.05 in 10.0 mi Variable 6.9 mph - N/A   Mostly Cloudy
9:43 AM 78.8 °F - 73.4 °F 83% 30.05 in 10.0 mi NNE 8.1 mph - N/A   Partly Cloudy
9:56 AM 80.1 °F 84.2 °F 73.0 °F 79% 30.05 in 10.0 mi NNE 8.1 mph - N/A   Scattered Clouds
10:07 AM 80.6 °F 85.4 °F 73.4 °F 79% 30.06 in 10.0 mi NNE 8.1 mph - N/A   Mostly Cloudy
10:56 AM 82.9 °F 88.0 °F 72.0 °F 69% 30.06 in 10.0 mi North 9.2 mph - N/A   Scattered Clouds
11:25 AM 82.4 °F 87.2 °F 71.6 °F 70% 30.07 in 10.0 mi East 4.6 mph - N/A   Mostly Cloudy
11:36 AM 84.2 °F 89.6 °F 71.6 °F 66% 30.07 in 10.0 mi East 4.6 mph - N/A   Scattered Clouds
11:56 AM 84.0 °F 89.0 °F 71.1 °F 65% 30.06 in 10.0 mi Variable 6.9 mph - N/A   Mostly Cloudy
12:07 PM 84.2 °F 89.6 °F 71.6 °F 66% 30.07 in 10.0 mi North 4.6 mph - N/A   Scattered Clouds
12:56 PM 86.0 °F 92.2 °F 72.0 °F 63% 30.05 in 10.0 mi East 5.8 mph - N/A   Clear
1:56 PM 87.1 °F 92.8 °F 71.1 °F 59% 30.04 in 10.0 mi NW 6.9 mph - N/A   Unknown
2:56 PM 87.1 °F 91.3 °F 69.1 °F 55% 30.04 in 10.0 mi Variable 5.8 mph - N/A   Partly Cloudy
3:56 PM 86.0 °F 90.7 °F 70.0 °F 59% 30.03 in 10.0 mi NW 8.1 mph - N/A   Clear
4:56 PM 84.9 °F 88.8 °F 69.1 °F 59% 30.03 in 10.0 mi NNW 8.1 mph - N/A   Clear
5:56 PM 82.9 °F 85.8 °F 68.0 °F 60% 30.04 in 10.0 mi Variable 6.9 mph - N/A   Clear
6:56 PM 79.0 °F - 64.9 °F 62% 30.04 in 10.0 mi North 5.8 mph - N/A   Clear
7:56 PM 75.9 °F - 66.0 °F 71% 30.05 in 10.0 mi North 5.8 mph - N/A   Clear
8:56 PM 73.0 °F - 63.0 °F 71% 30.07 in 10.0 mi North 9.2 mph - N/A   Clear
9:56 PM 71.1 °F - 62.1 °F 73% 30.07 in 10.0 mi NNE 5.8 mph - N/A   Clear
10:56 PM 69.1 °F - 62.1 °F 78% 30.07 in 10.0 mi North 6.9 mph - N/A   Clear
11:56 PM 69.1 °F - 61.0 °F 75% 30.08 in 10.0 mi North 4.6 mph - N/A   Clear